Regional Weather Roundup
Issued by NWS Goodland, KS

Current Version | Previous Version | Text Only | Print | Product List | Glossary On
Versions: 1 2 3 4 5 6 7 8 9 10 11 12 13 14 15 16 17 18 19 20 21 22 23 24 25 26 27 28 29 30 31 32 33 34 35 36 37 38 39 40 41 42 43 44 45 46 47 48 49 50
000 ASUS43 KGLD 231508 RWRGLD GOODLAND FORECAST AREA HOURLY WEATHER ROUNDUP NATIONAL WEATHER SERVICE GOODLAND KS 900 AM MDT FRI APR 23 2021 ...OFFICIAL OBSERVATIONS... CITY SKY/WX TMP DP RH WIND PRES REMARKS GOODLAND KS SUNNY 52 34 50 NW8 29.80S HILL CITY KS CLOUDY 50 43 77 S5 29.83S IMPERIAL NEB MOSUNNY 51 30 44 N12 29.81R MCCOOK NEB SUNNY 47 36 65 W9 29.81S AKRON CO PTSUNNY 46 34 62 NW5 29.81S BURLINGTON CO MOSUNNY 54 33 45 N6 29.81S LIMON CO CLOUDY 45 31 58 W12 29.82R $$ ...UNOFFICIAL OBSERVATIONS... CITY SKY/WX TMP DP RH WIND PRES REMARKS COLBY KS SUNNY 53 36 51 NW8 29.80F NORTON KS CLOUDY 48 43 81 SW7 29.84F SHARON SPRINGS N/A 53 41 63 N5 N/A YUMA CO FAIR 50 27 40 N8 29.81S $$

USA.gov is the U.S. government's official web portal to all federal, state and local government web resources and services.